2023/09/20 00:00:00,57.5,20.0
2023/09/20 00:10:00,57.4,20.0
2023/09/20 00:20:00,57.5,20.0
2023/09/20 00:30:00,57.5,20.2
2023/09/20 00:40:00,57.5,19.8
2023/09/20 00:50:00,57.5,20.2
2023/09/20 01:00:00,57.4,20.2
2023/09/20 01:10:00,57.4,20.4
2023/09/20 01:20:00,57.5,20.4
2023/09/20 01:30:00,57.4,20.3
2023/09/20 01:40:00,57.5,20.4
2023/09/20 01:50:00,57.4,20.4
2023/09/20 02:00:00,57.4,20.6
2023/09/20 02:10:00,57.4,20.4
2023/09/20 02:20:00,57.4,20.5
2023/09/20 02:30:00,57.4,20.4
2023/09/20 02:40:00,57.5,20.4
2023/09/20 02:50:00,57.5,20.4
2023/09/20 03:00:00,57.5,20.5
2023/09/20 03:10:00,57.4,20.5
2023/09/20 03:20:00,57.5,20.4
2023/09/20 03:30:00,57.5,20.2
2023/09/20 03:40:00,57.4,20.0
2023/09/20 03:50:00,57.5,19.8
2023/09/20 04:00:00,57.4,19.8
2023/09/20 04:10:00,57.4,19.6
2023/09/20 04:20:00,57.4,19.7
2023/09/20 04:30:00,57.4,19.5
2023/09/20 04:40:00,57.3,19.5
2023/09/20 04:50:00,57.3,19.4
2023/09/20 05:00:00,57.3,19.5
2023/09/20 05:10:00,57.2,19.6
2023/09/20 05:20:00,57.3,19.7
2023/09/20 05:30:00,57.3,19.6
2023/09/20 05:40:00,57.2,19.8
2023/09/20 05:50:00,57.3,19.4
2023/09/20 06:00:00,57.2,19.5
2023/09/20 06:10:00,57.2,19.5
2023/09/20 06:20:00,57.2,19.7
2023/09/20 06:30:00,57.2,19.7
2023/09/20 06:40:00,57.2,19.8
2023/09/20 06:50:00,57.1,19.7
2023/09/20 07:00:00,57.2,20.0
2023/09/20 07:10:00,57.2,20.1
2023/09/20 07:20:00,57.2,20.1
2023/09/20 07:30:00,57.1,20.7
2023/09/20 07:40:00,57.1,21.0
2023/09/20 07:50:00,57.0,21.2
2023/09/20 08:00:00,57.1,21.4
2023/09/20 08:10:00,57.3,21.4
2023/09/20 08:20:00,57.1,22.0
2023/09/20 08:30:00,57.1,22.1
2023/09/20 08:40:00,57.2,22.4
2023/09/20 08:50:00,57.2,23.2
2023/09/20 09:00:00,57.3,23.6
2023/09/20 09:10:00,57.2,24.0
2023/09/20 09:20:00,57.0,23.7
2023/09/20 09:30:00,56.9,24.2
2023/09/20 09:40:00,56.6,23.5
2023/09/20 09:50:00,56.8,23.4
2023/09/20 10:00:00,56.9,24.1
2023/09/20 10:10:00,56.8,25.1
2023/09/20 10:20:00,56.6,25.4
2023/09/20 10:30:00,56.4,24.6
2023/09/20 10:40:00,56.3,24.9
2023/09/20 10:50:00,56.5,25.0
2023/09/20 11:00:00,56.5,24.7
2023/09/20 11:10:00,56.4,24.5
2023/09/20 11:20:00,56.6,24.3
2023/09/20 11:30:00,56.6,24.3
2023/09/20 11:40:00,56.6,24.9
2023/09/20 11:50:00,56.2,24.5
2023/09/20 12:00:00,56.3,25.0
2023/09/20 12:10:00,56.6,24.8
2023/09/20 12:20:00,56.5,24.5
2023/09/20 12:30:00,56.6,24.6
2023/09/20 12:40:00,56.6,24.4
2023/09/20 12:50:00,56.8,24.0
2023/09/20 13:00:00,56.7,24.5
2023/09/20 13:10:00,56.5,25.0
2023/09/20 13:20:00,56.2,24.6
2023/09/20 13:30:00,56.5,24.3
2023/09/20 13:40:00,56.6,24.1
2023/09/20 13:50:00,56.7,24.3
2023/09/20 14:00:00,56.8,24.1
2023/09/20 14:10:00,56.7,24.0
2023/09/20 14:20:00,56.8,24.0
2023/09/20 14:30:00,56.8,23.9
2023/09/20 14:40:00,56.7,23.7
2023/09/20 14:50:00,56.6,23.7
2023/09/20 15:00:00,56.6,24.0
2023/09/20 15:10:00,56.6,24.0
2023/09/20 15:20:00,56.6,23.7
2023/09/20 15:30:00,56.6,23.3
2023/09/20 15:40:00,56.5,23.3
2023/09/20 15:50:00,56.5,23.3
2023/09/20 16:00:00,56.4,23.4
2023/09/20 16:10:00,56.6,23.4
2023/09/20 16:20:00,56.7,23.3
2023/09/20 16:30:00,56.8,23.4
2023/09/20 16:40:00,56.9,22.8
2023/09/20 16:50:00,56.9,22.8
2023/09/20 17:00:00,56.9,22.8
2023/09/20 17:10:00,57.0,22.4
2023/09/20 17:20:00,57.1,22.4
2023/09/20 17:30:00,57.1,22.3
2023/09/20 17:40:00,57.1,22.0
2023/09/20 17:50:00,57.2,21.9
2023/09/20 18:00:00,57.3,21.7
2023/09/20 18:10:00,57.4,21.5
2023/09/20 18:20:00,57.4,21.5
2023/09/20 18:30:00,57.4,21.3
2023/09/20 18:40:00,57.4,21.2
2023/09/20 18:50:00,57.4,21.0
2023/09/20 19:00:00,57.5,21.2
2023/09/20 19:10:00,57.5,21.1
2023/09/20 19:20:00,57.5,21.0
2023/09/20 19:30:00,57.4,21.2
2023/09/20 19:40:00,57.4,21.1
2023/09/20 19:50:00,57.2,21.2
2023/09/20 20:00:00,57.3,21.2
2023/09/20 20:10:00,57.2,21.4
2023/09/20 20:20:00,57.2,21.0
2023/09/20 20:30:00,57.3,21.2
2023/09/20 20:40:00,57.2,21.2
2023/09/20 20:50:00,57.3,21.2
2023/09/20 21:00:00,57.2,21.1
2023/09/20 21:10:00,57.2,21.2
2023/09/20 21:20:00,57.2,21.3
2023/09/20 21:30:00,57.1,21.2
2023/09/20 21:40:00,57.1,21.2
2023/09/20 21:50:00,57.2,21.2
2023/09/20 22:00:00,57.1,21.4
2023/09/20 22:10:00,57.0,21.0
2023/09/20 22:20:00,57.1,21.8
2023/09/20 22:30:00,56.9,22.0
2023/09/20 22:40:00,56.7,21.8
2023/09/20 22:50:00,56.6,22.0
2023/09/20 23:00:00,56.4,22.2
2023/09/20 23:10:00,56.0,22.3
2023/09/20 23:20:00,56.4,22.1
2023/09/20 23:30:00,---,22.5
2023/09/20 23:40:00,30.1,22.3
2023/09/20 23:50:00,36.3,21.9
